User: anonymous   Login
Location: Oshawa
(43.9000°N, 78.8670°W)
Time: 16:13:43
(UTC-04:00)
Language:

Cosmos 1953 Rocket - Orbit

View from above orbital plane
View from above orbital plane
View from above satellite
View from above satellite

Ground track
Ground track

The orbit data is extracted from the following two-line orbital elements,

1 19211U 88050B   18262.16859972  .00000059  00000-0  42133-5 0  9993
2 19211  82.5260 133.1489 0023015  47.7425  67.8031 14.83017068634813
Epoch (UTC): 19 September 2018 04:02:47
Eccentricity: 0.0023015
inclination: 82.5260°
perigee height: 604 km
apogee height: 636 km
right ascension of ascending node: 133.1489°
argument of perigee: 47.7425°
revolutions per day: 14.83017068
mean anomaly at epoch: 67.8031°
orbit number at epoch: 63481

The dashed part of the orbit path shows where the satellite is in the earth's shadow,  

DLR